Погода в Каменушке

Россия / Новосибирская область     54°50′37″N   83°13′52″E
темп.,
°C
ветер,
м/с
пор.,
м/с
влажн.,
%
обл.,
%
осадки,
мм/ч
давл.,
гПа
погр.,
м
27 января, ср
ср2701:00−21ююв599798 0.1 1033255
04:00−15ю51196100 0.6 1030490
07:00−12ююз51295100 1.6 1026513
10:00−8юз71395100 1.9 1024553
13:00−3зюз91596100 4.3 1023869
16:00−3зюз91596100 1.9 1022818
19:00−3зюз81596100 3.6 1023707
22:00−3зюз81496100 1.5 1024669
28 января, чт
чт2801:00−5зюз71296100 3.5 1026510
04:00−6зюз51096100 1.3 1028424
07:00−7зюз5896100 2.3 1030326
10:00−8юз4896100 0.6 1030284
13:00−6юз61095100 1.3 1030449
16:00−6юз61193100 0.4 1028718
19:00−7юз51295100 0.7 1028600
22:00−9юз71493100 0.2 1026504
29 января, пт
пт2901:00−8юз71592100 0.3 1024533
04:00−6юз81690100 0.0 1022637
07:00−6зюз81689100 0.1 1020787
10:00−5зюз81595100 0.5 1021845
13:00−4з71194100 2.4 1022804
16:00−4з61094100 0.4 1023626
19:00−5з51095100 0.8 1025620
22:00−5з51095100 0.4 1026587
30 января, сб
сб3001:00−6з5995100 0.8 1027514
04:00−7зюз5995100 0.1 1028267
07:00−7з4996100 0.3 1029321
10:00−8зсз3696100 0.4 1031225
13:00−13св3495100 0.6 1033148
16:00−14ссв3494100 0.1 1034188
19:00−19св349698 0.1 103678
22:00−22всв339590 0.0 103760
31 января, вс
вс3101:00−22всв239483 0.0 103729
04:00−21в229696 0.0 103721
07:00−19в239592 0.0 103664
10:00−17в3595100 0.0 1035120
13:00−12вюв3593100 0.0 1033238
16:00−10вюв3593100 0.0 1031239
19:00−12в2394100 0.0 103027
22:00−12в339498 0.0 102836